CST,Max TemperatureF,Mean TemperatureF,Min TemperatureF,Max Dew PointF,MeanDew PointF,Min DewpointF,Max Humidity, Mean Humidity, Min Humidity, Max Sea Level PressureIn, Mean Sea Level PressureIn, Min Sea Level PressureIn, Max VisibilityMiles, Mean VisibilityMiles, Min VisibilityMiles, Max Wind SpeedMPH, Mean Wind SpeedMPH, Max Gust SpeedMPH,PrecipitationIn, CloudCover, Events, WindDirDegrees
2012-11-1,87,64,42,46,42,38,89,56,18,30.04,29.96,29.88,10,10,10,9,2,18,0.00,0,,252
2012-11-2,86,66,46,55,47,41,86,60,27,29.96,29.89,29.81,10,9,1,18,4,26,0.00,0,,193
2012-11-3,69,60,51,50,39,35,62,47,31,30.16,30.08,29.92,10,10,8,20,13,25,0.00,0,,20
2012-11-4,72,58,45,37,35,31,71,49,23,30.20,30.13,30.06,10,10,10,10,6,,0.00,0,,24
2012-11-5,72,58,43,41,36,31,79,50,22,30.14,30.10,30.06,10,10,10,23,7,33,0.00,0,,357
2012-11-6,79,56,34,40,37,31,89,56,24,30.17,30.12,30.05,10,10,10,13,3,,0.00,0,,317
2012-11-7,73,54,36,40,35,32,93,51,25,30.22,30.11,30.02,10,10,10,12,4,16,0.00,0,,137
2012-11-8,82,66,51,54,46,35,57,47,37,30.01,29.92,29.83,10,10,10,20,11,26,0.00,0,,151
2012-11-9,82,68,54,59,54,47,87,60,39,29.93,29.85,29.76,10,10,9,18,10,32,0.00,1,,158
2012-11-10,80,70,60,59,57,53,84,63,45,29.88,29.78,29.68,10,10,10,26,13,38,0.00,3,,160
2012-11-11,72,54,35,63,47,27,94,77,58,30.33,29.92,29.67,10,9,4,23,11,28,0.27,5,Rain-Thunderstorm,352
2012-11-12,53,40,27,29,25,20,89,62,28,30.55,30.48,30.36,10,10,10,7,3,,0.00,0,,182
2012-11-13,57,40,24,29,25,21,92,57,25,30.51,30.42,30.30,10,10,7,13,4,17,0.00,1,,159
2012-11-14,63,45,27,30,27,24,89,53,23,30.41,30.33,30.26,10,10,10,12,4,16,0.00,0,,171
2012-11-15,63,46,30,42,35,27,88,66,46,30.35,30.28,30.21,10,10,10,10,3,,0.00,1,,114
2012-11-16,63,50,37,37,33,26,82,56,26,30.43,30.37,30.33,10,10,8,8,3,,0.00,4,,95
2012-11-17,64,48,32,34,30,27,92,55,28,30.41,30.31,30.25,10,10,8,13,4,21,0.00,0,,146
2012-11-18,70,59,48,43,36,30,58,46,35,30.24,30.17,30.10,10,10,10,23,11,29,0.00,4,,153
2012-11-19,73,60,48,54,48,41,89,65,48,30.14,30.11,30.06,10,10,9,15,8,22,0.00,2,,157
2012-11-20,77,60,44,55,48,41,100,78,37,30.24,30.18,30.13,10,6,0,8,2,,0.00,0,Fog,31
2012-11-21,79,59,39,53,46,38,96,65,31,30.25,30.15,30.03,10,9,6,15,4,24,0.00,0,,168
2012-11-22,77,67,57,56,50,39,81,60,40,30.17,30.01,29.90,10,9,2,30,11,39,0.00,0,,157
2012-11-23,60,47,30,37,27,22,72,43,26,30.51,30.43,30.19,10,10,10,31,20,41,0.00,1,,14
2012-11-24,63,44,25,25,22,19,81,48,18,30.45,30.25,30.03,10,10,10,18,5,25,0.00,0,,167
2012-11-25,71,50,30,36,31,22,75,49,26,30.00,29.87,29.79,10,10,10,13,5,18,0.00,0,,208
2012-11-26,55,48,39,36,31,22,71,53,40,30.37,30.07,29.81,10,10,6,25,13,32,0.00,1,,7
2012-11-27,52,41,28,28,26,22,79,61,38,30.50,30.39,30.32,10,10,7,14,9,22,0.00,0,,31
2012-11-28,66,46,25,39,32,21,88,61,34,30.38,30.28,30.18,10,10,8,14,5,22,0.00,0,,144
2012-11-29,70,51,32,45,40,29,89,64,41,30.17,30.09,29.99,10,9,2,17,6,23,0.00,0,,139
2012-11-30,73,60,46,55,49,43,93,74,46,30.06,30.00,29.94,10,8,2,15,9,23,0.00,0,,147